Tracking 19242 objects as of 16-Aug-2018
HD Live streaming from Space Station
objects crossing your sky now

NOAA 16 DEB

Track NOAA 16 DEB now!
10-day predictions


NORAD ID: 41079
Int'l Code: 2000-055AN
Perigee: 857.8 km
Apogee: 1,075.2 km
Inclination: 99.0 °
Period: 104.3 minutes
Semi major axis: 7337 km
RCS: Unknown
Launch date: September 21, 2000
Source: United States (US)
Launch site: AIR FORCE WESTERN TEST RANGE (AFWTR)

Note: This is SATELLITE DEBRIS
aabbcc
Your satellite tracking list
Your tracking list is empty




NASA's NSSDC Master Catalog

Two Line Element Set (TLE):
1 41079U 00055AN  18227.87993140 +.00000035 +00000-0 +65143-4 0  9993
2 41079 098.9515 263.6715 0148173 151.9599 208.9637 13.81269706137046
Source of the keplerian elements: AFSPC